Location: Lancaster
(34.6980°N, 118.1360°W)
Time: 19:13:27
(UTC-08:00)

Vanguard 1 Rocket - Visible Passes

Search period start: 21 February 2018 00:00
Search period end: 03 March 2018 00:00
Orbit: 655 x 4222 km, 34.3° (Epoch: 20 February)

Date Brightness Start Highest point End Pass type
(mag) Time Alt. Az. Time Alt. Az. Time Alt. Az.
21 Feb 10.4 01:36:58 69° E 01:36:58 69° E 01:54:42 10° E visible
21 Feb 10.2 03:54:14 44° W 04:05:04 69° SSW 04:22:10 10° SE visible
21 Feb 10.5 19:03:53 10° S 19:15:02 26° SE 19:20:11 24° ESE visible
21 Feb 10.2 21:25:23 10° SW 22:12:24 - ENE 21:37:31 56° SSW visible
21 Feb 11.0 23:52:37 10° W 00:29:41 40° E 00:41:02 10° E visible
22 Feb 10.2 02:46:58 73° WSW 02:50:19 80° SSW 03:10:31 10° ESE visible
22 Feb 10.4 05:04:15 21° W 05:20:48 46° SW 05:35:17 10° SSE visible
22 Feb 10.8 17:58:58 10° SE 18:03:54 12° ESE 18:09:46 10° E visible
22 Feb 10.1 20:14:53 10° SSW 20:29:09 49° SE 20:30:56 49° SE visible
22 Feb 10.7 22:39:57 10° WSW 23:22:28 19° E 23:26:30 10° E visible
23 Feb 10.4 01:39:46 69° ESE 01:39:46 69° ESE 01:57:50 10° ESE visible
23 Feb 10.3 03:57:03 42° W 04:07:30 62° SSW 04:24:55 10° SE visible
23 Feb 10.3 19:05:36 10° S 19:17:02 33° SE 19:24:20 26° E visible
23 Feb 10.1 21:28:14 10° SW 22:15:20 - ENE 21:41:40 65° SSW visible
23 Feb 11.0 23:55:47 10° W 00:32:38 40° E 00:44:09 10° E visible
24 Feb 10.3 02:49:55 71° WSW 02:52:59 75° SSW 03:13:27 10° ESE visible
24 Feb 10.6 05:07:13 19° W 05:22:51 39° SW 05:37:26 10° SSE visible
24 Feb 10.6 17:58:23 10° SSE 18:05:53 17° ESE 18:16:06 10° E visible
24 Feb 10.0 20:17:29 10° SW 20:31:28 57° SE 20:35:04 53° ESE visible
24 Feb 10.6 22:43:05 10° WSW 23:25:35 18° E 23:29:30 10° E visible
25 Feb 10.4 01:42:53 68° ESE 01:42:53 68° ESE 02:00:54 10° ESE visible
25 Feb 10.4 04:00:12 41° W 04:09:47 54° SW 04:27:27 10° SE visible
25 Feb 10.1 19:07:45 10° SSW 19:19:09 40° SE 19:28:24 27° E visible
25 Feb 10.0 21:31:15 10° WSW 22:18:37 - E 21:45:45 74° SSW visible
25 Feb 11.0 23:58:59 10° W 00:35:56 39° E 00:47:14 10° E visible
26 Feb 10.3 02:53:14 67° SW 02:55:30 69° SSW 03:16:14 10° SE visible
26 Feb 10.7 05:10:34 18° W 05:24:48 32° SW 05:39:12 10° S visible
26 Feb 10.3 17:59:28 10° S 18:07:56 23° SE 18:20:40 10° E visible
26 Feb 9.8 20:20:17 10° SW 20:33:57 65° SSE 20:39:02 54° ESE visible
26 Feb 10.5 22:46:18 10° W 23:29:03 17° E 23:32:31 10° E visible
27 Feb 10.5 01:46:23 64° SE 01:46:23 64° SE 02:03:50 10° ESE visible
27 Feb 10.5 04:03:42 39° WSW 04:11:54 47° SW 04:29:43 10° SSE visible
27 Feb 9.9 19:10:13 10° SSW 19:21:26 47° SE 19:32:16 27° E visible
27 Feb 9.9 21:34:23 10° WSW 22:22:16 - E 21:49:36 81° SSW visible
28 Feb 11.0 00:02:11 10° W 00:39:36 37° ESE 00:50:15 10° ESE visible
28 Feb 10.4 02:56:56 62° SW 02:57:52 62° SSW 03:18:47 10° SE visible
28 Feb 10.9 05:14:15 17° W 05:26:41 26° SW 05:40:26 10° S visible
28 Feb 10.1 18:01:17 10° S 18:10:04 29° SE 18:24:27 10° E visible
28 Feb 9.8 20:23:16 10° WSW 20:36:38 72° SSE 20:42:45 54° E visible
28 Feb 10.4 22:49:33 10° W 23:32:53 15° E 23:35:32 10° E visible
01 Mar 10.6 01:50:14 58° SE 01:50:14 58° SE 02:06:36 10° ESE visible
01 Mar 10.7 04:07:34 36° WSW 04:13:55 40° SW 04:31:39 10° SSE visible
01 Mar 9.7 19:12:56 10° SW 19:23:54 55° SE 19:35:51 27° E visible
01 Mar 9.9 21:37:37 10° WSW 21:53:09 86° SSW 21:53:09 86° SSW visible
02 Mar 11.1 00:05:23 10° W 00:43:35 33° ESE 00:53:10 10° ESE visible
02 Mar 10.5 03:00:55 54° SSW 03:00:55 54° SSW 03:21:06 10° SE visible
02 Mar 11.1 05:18:16 14° W 05:28:34 20° SW 05:40:51 10° SSW visible
02 Mar 9.8 18:03:33 10° SSW 18:12:21 36° SE 18:27:49 10° ENE visible
02 Mar 9.7 20:26:24 10° WSW 20:39:28 78° SSE 20:46:11 53° E visible
02 Mar 10.4 22:52:49 10° W 23:36:59 13° E 23:38:30 10° E visible
